[[{"header":{"parameterUnit":"m.s-1","parameterCategory":1,"la1":30.2991,"la2":30.254,"lo1":-89.0895,"lo2":-89.0444,"dy":0.0017,"dx":0.0017,"nx":28,"ny":28,"refTime":"2023-10-09T09:00:00:Z","depth":0,"parameterNumber":2,"parameterNumberName":"U-component_of_WINDS"},"data":[0,0,0,0,0,0,0,0,0,0,0,0,0,0,0,0,0,0,0,0,0,0,0,0,0,0,0,0,0,0,0,0,0,0,0,0,0,0,0,0,0,0,0,0,0,0,0,0,0,0,0,0,0,0,0,0,0,0,-2.5699,-2.57,0,-2.5779,-2.578,-2.5781,-2.5757,-2.5755,-2.5753,-2.5752,-2.5834,-2.5837,-2.5841,0,0,0,0,0,0,0,0,0,0,0,0,0,-2.5526,-2.553,-2.5699,-2.57,-2.5701,-2.5779,-2.578,-2.5781,-2.5757,-2.5755,-2.5753,-2.5751,-2.5833,-2.5837,-2.5841,0,0,0,0,0,0,0,0,0,0,0,0,0,-2.5603,-2.5531,-2.5699,-2.5699,-2.5699,-2.5778,-2.578,-2.5781,-2.5757,-2.5755,-2.5752,-2.575,-2.5831,-2.5837,-2.5842,-2.5926,0,0,-2.5859,-2.5862,0,0,0,0,0,0,0,0,-2.5599,-2.561,-2.5698,-2.5699,-2.57,-2.5755,-2.5749,-2.583,-2.5758,-2.5735,-2.5752,-2.5749,-2.581,-2.5817,-2.5837,-2.593,-2.5934,-2.586,-2.5863,-2.5865,-2.5867,0,0,0,0,0,0,0,-2.5594,-2.5606,-2.5731,-2.5699,-2.57,-2.5694,-2.5703,-2.5764,-2.5786,-2.5737,-2.5736,-2.5745,-2.581,-2.5832,-2.5839,-2.5935,-2.5859,-2.5864,-2.5868,-2.587,-2.6101,-2.6103,0,0,0,0,0,0,-2.5587,-2.5602,-2.5728,-2.5733,-2.5642,-2.57,-2.5709,-2.574,-2.5785,-2.5789,-2.5747,-2.5744,-2.5824,-2.5833,-2.5842,-2.5943,-2.5865,-2.5871,-2.5874,-2.6098,-2.6101,-2.6104,0,0,0,0,0,0,-2.5584,-2.5599,-2.5725,-2.5667,-2.5683,-2.5705,-2.5741,-2.5743,-2.5765,-2.5793,-2.5796,-2.5766,-2.5822,-2.5834,-2.5905,-2.5945,-2.5873,-2.5878,-2.6095,-2.6099,-2.6103,-2.6146,0,0,0,0,0,0,-2.5579,-2.5598,-2.563,-2.5668,-2.5686,-2.5787,-2.5743,-2.5746,-2.5775,-2.5771,-2.5811,-2.5815,-2.5821,-2.5897,-2.5911,-2.5952,-2.5883,-2.6091,-2.6097,-2.6101,-2.6141,-2.6151,-2.616,0,0,0,0,0,-2.5573,-2.5639,-2.5632,-2.5647,-2.5727,-2.579,-2.58,-2.5805,-2.5778,-2.5811,-2.5828,-2.5814,-2.5939,-2.5905,-2.592,-2.5963,-2.6089,-2.6095,-2.6101,-2.6137,-2.6149,-2.616,0,0,0,0,0,0,-2.5606,-2.5644,-2.5636,-2.5717,-2.575,-2.5785,-2.5827,-2.5818,-2.5859,-2.5854,-2.5859,-2.5868,-2.5941,-2.5959,-2.592,-2.6047,-2.601,-2.6019,-2.6032,-2.6044,-2.6053,-2.6047,-2.5887,0,0,0,0,0,-2.5623,-2.5671,-2.5702,-2.577,-2.5787,-2.5804,-2.5832,-2.5833,-2.5867,-2.5881,-2.5904,-2.5938,-2.5985,-2.6016,-2.606,-2.6144,-2.6152,-2.6181,-2.6191,-2.6198,-2.6206,-2.6251,-2.6264,-2.6125,-2.6125,-2.6124,0,0,-2.5658,-2.5685,-2.5715,-2.5777,-2.5803,-2.5852,-2.5816,-2.587,-2.5906,-2.5889,-2.5958,-2.5976,-2.6014,-2.6092,-2.6127,-2.611,-2.6247,-2.6206,-2.6212,-2.6216,-2.6259,-2.6272,-2.6284,-2.6129,-2.6128,-2.6127,0,0,-2.5746,-2.5772,-2.5831,-2.5858,-2.5897,-2.5908,-2.5922,-2.5959,-2.597,-2.6039,-2.6027,-2.6071,-2.6151,-2.6179,-2.6203,-2.6303,-2.6291,-2.6317,-2.6365,-2.6409,-2.642,-2.643,-2.6465,-2.6477,-2.6325,-2.6325,-2.6325,0,-2.5785,-2.5859,-2.5863,-2.5917,-2.5945,-2.5932,-2.5992,-2.6017,-2.6069,-2.6089,-2.6068,-2.6169,-2.6194,-2.6277,-2.6301,-2.6322,-2.6338,-2.6312,-2.6418,-2.6428,-2.6437,-2.647,-2.6483,-2.6328,-2.6328,-2.6327,-2.6327,0,-2.5903,-2.5955,-2.5998,-2.6048,-2.6081,-2.6138,-2.615,-2.6183,-2.6181,-2.6194,-2.6264,-2.6294,-2.6344,-2.6364,-2.6363,-2.6448,-2.6436,-2.6417,-2.6379,-2.6453,-2.6484,-2.6497,-2.6332,-2.6331,-2.633,-2.633,0,0,-2.6015,-2.6066,-2.6082,-2.6104,-2.6147,-2.6186,-2.6243,-2.6292,-2.6319,-2.6356,-2.6403,-2.6471,-2.6454,-2.6482,-2.6484,-2.6523,-2.6598,-2.6499,-2.65,-2.6516,-2.6692,-2.6706,-2.672,-2.6591,-2.6594,-2.6596,-2.6689,0,-2.6107,-2.6205,-2.621,-2.63,-2.6347,-2.6335,-2.6384,-2.6416,-2.6429,-2.6471,-2.6487,-2.6535,-2.6509,-2.6526,-2.6563,-2.6581,-2.6634,-2.6575,-2.6635,-2.6637,-2.6624,-2.6737,-2.6751,-2.6838,-2.6701,-2.6703,-2.6705,0,-2.6227,-2.6266,-2.636,-2.6395,-2.6415,-2.6459,-2.6504,-2.6544,-2.6579,-2.6587,-2.6618,-2.6614,-2.6672,-2.6633,-2.6713,-2.6672,-2.6697,-2.671,-2.6713,-2.6718,-2.6675,-2.6744,-2.6866,-2.6878,-2.6724,-2.6723,-2.6721,0,-2.6297,-2.6374,-2.644,-2.646,-2.6503,-2.6534,-2.6553,-2.6585,-2.6614,-2.6654,-2.6672,-2.6718,-2.6743,-2.6779,-2.6787,-2.6759,-2.6867,-2.6829,-2.6874,-2.6874,-2.6896,-2.6895,-2.7023,-2.6914,-2.6914,-2.6914,-2.6913,0,-2.6399,-2.6457,-2.6472,-2.6513,-2.6577,-2.6583,-2.6647,-2.6664,-2.6693,-2.6737,-2.673,-2.6771,-2.678,-2.6823,-2.6831,-2.6895,-2.6907,-2.6914,-2.6915,-2.6914,-2.6913,-2.693,-2.6924,-2.6917,-2.6916,-2.6916,-2.6915,0,-2.6488,-2.6502,-2.6573,-2.6607,-2.6617,-2.6663,-2.6692,-2.6731,-2.6744,-2.6799,-2.6813,-2.6833,-2.6883,-2.6896,-2.6956,-2.6961,-2.7037,-2.7032,-2.7024,-2.7024,-2.7068,-2.7064,-2.7211,-2.723,-2.711,-2.7111,-2.7112,0,-2.6552,-2.6596,-2.6635,-2.6663,-2.6684,-2.673,-2.6759,-2.6766,-2.6797,-2.684,-2.6874,-2.6923,-2.6963,-2.7044,-2.7064,-2.711,-2.7106,-2.7155,-2.7113,-2.7111,-2.7106,-2.7103,-2.7107,-2.7163,-2.7164,-2.7165,-2.7166,0,-2.6663,-2.6667,-2.6709,-2.6753,-2.6788,-2.6824,-2.6858,-2.6881,-2.6893,-2.6928,-2.6979,-2.701,-2.7071,-2.712,-2.7166,-2.7186,-2.7178,-2.7179,-2.7192,-2.7191,-2.7184,-2.7187,-2.7045,-2.7175,-2.7174,-2.7174,-2.7173,-2.7173,-2.6741,-2.6779,-2.6812,-2.6859,-2.6885,-2.6917,-2.6955,-2.6972,-2.7015,-2.7065,-2.7067,-2.7122,-2.7156,-2.7217,-2.7239,-2.7283,-2.7268,-2.7287,-2.7292,-2.7296,-2.7299,-2.7178,-2.7292,-2.7291,-2.7291,-2.7291,-2.7291,0,-2.6851,-2.6872,-2.6915,-2.6962,-2.6999,-2.6987,-2.7024,-2.7056,-2.7105,-2.7137,-2.7176,-2.7234,-2.7281,-2.7305,-2.7352,-2.7382,-2.738,-2.7395,-2.7392,-2.7397,-2.731,-2.7294,-2.7396,-2.7396,-2.7396,-2.7396,-2.7396,-2.7396,-2.6913,-2.6976,-2.6984,-2.7061,-2.7081,-2.7135,-2.7157,-2.7186,-2.7211,-2.7277,-2.7316,-2.7331,-2.736,-2.7408,-2.7451,-2.7457,-2.7475,-2.7491,-2.7495,-2.7414,-2.7403,-2.7393,-2.7377,-2.7495,-2.7495,-2.7578,-2.7578,-2.7579]},{"header":{"parameterUnit":"m.s-1","parameterCategory":1,"la1":30.2991,"la2":30.254,"lo1":-89.0895,"lo2":-89.0444,"dy":0.0017,"dx":0.0017,"nx":28,"ny":28,"refTime":"2023-10-09T09:00:00:Z","depth":0,"parameterNumber":3,"parameterNumberName":"V-component_of_WINDS"},"data":[0,0,0,0,0,0,0,0,0,0,0,0,0,0,0,0,0,0,0,0,0,0,0,0,0,0,0,0,0,0,0,0,0,0,0,0,0,0,0,0,0,0,0,0,0,0,0,0,0,0,0,0,0,0,0,0,0,0,2.6184,2.6184,0,2.6202,2.6203,2.6203,2.6161,2.6159,2.6158,2.6157,2.6173,2.6174,2.6176,0,0,0,0,0,0,0,0,0,0,0,0,0,2.6109,2.6111,2.6184,2.6184,2.6184,2.6202,2.6203,2.6203,2.6161,2.6159,2.6157,2.6156,2.6172,2.6174,2.6176,0,0,0,0,0,0,0,0,0,0,0,0,0,2.6136,2.6111,2.6184,2.6166,2.6164,2.6202,2.6203,2.6203,2.6161,2.6159,2.6157,2.6155,2.6172,2.6174,2.6177,2.6233,0,0,2.6184,2.6185,0,0,0,0,0,0,0,0,2.6135,2.6139,2.6168,2.6167,2.6165,2.6177,2.6182,2.6213,2.6162,2.6162,2.6157,2.6154,2.6176,2.6178,2.6186,2.6233,2.6234,2.6185,2.6186,2.6187,2.6188,0,0,0,0,0,0,0,2.6133,2.6138,2.6191,2.6168,2.6167,2.6156,2.6157,2.6188,2.618,2.6162,2.6159,2.6162,2.6175,2.6183,2.6186,2.6234,2.6184,2.6187,2.6188,2.6189,2.6328,2.633,0,0,0,0,0,0,2.6134,2.6137,2.6191,2.6192,2.6145,2.6159,2.616,2.6175,2.618,2.6178,2.6164,2.616,2.618,2.6183,2.6186,2.6251,2.6187,2.619,2.6191,2.6326,2.6328,2.6331,0,0,0,0,0,0,2.6132,2.6139,2.619,2.6163,2.6169,2.6162,2.6179,2.6177,2.6185,2.6181,2.6179,2.6174,2.6178,2.6183,2.6221,2.6251,2.6191,2.6193,2.6323,2.6327,2.633,2.6381,0,0,0,0,0,0,2.613,2.6139,2.616,2.6164,2.6171,2.6226,2.6181,2.6179,2.619,2.6185,2.619,2.6189,2.6177,2.6218,2.6224,2.6253,2.6195,2.632,2.6325,2.6329,2.6377,2.6386,2.6394,0,0,0,0,0,2.6128,2.6174,2.6162,2.6168,2.6198,2.6227,2.6231,2.6217,2.6193,2.6214,2.6211,2.6189,2.6247,2.6222,2.6229,2.6259,2.6319,2.6324,2.6328,2.6373,2.6384,2.6393,0,0,0,0,0,0,2.6172,2.6174,2.616,2.6209,2.6219,2.622,2.6246,2.6229,2.6245,2.624,2.6222,2.6223,2.6265,2.6266,2.6238,2.6313,2.6278,2.6285,2.631,2.6321,2.6329,2.6327,2.6197,0,0,0,0,0,2.6188,2.6213,2.6213,2.6256,2.6261,2.6253,2.6266,2.6255,2.6263,2.6266,2.6266,2.6275,2.6295,2.6308,2.6327,2.6378,2.6377,2.6402,2.641,2.6417,2.6422,2.6448,2.6458,2.6347,2.6347,2.6347,0,0,2.622,2.6224,2.6241,2.6265,2.6271,2.6295,2.6257,2.6285,2.6303,2.627,2.6307,2.6307,2.6315,2.636,2.638,2.6362,2.6453,2.6423,2.6429,2.643,2.6454,2.6465,2.6474,2.635,2.6349,2.6349,0,0,2.6291,2.6298,2.6333,2.6341,2.635,2.6345,2.6354,2.6358,2.6358,2.6394,2.637,2.6391,2.6427,2.6433,2.6441,2.6516,2.6495,2.6522,2.6565,2.6591,2.6599,2.6607,2.6632,2.6641,2.6528,2.6528,2.6528,0,2.6329,2.6367,2.6354,2.6384,2.6394,2.6368,2.6403,2.6411,2.6426,2.6433,2.6414,2.6458,2.6462,2.6507,2.6525,2.6533,2.6542,2.652,2.6599,2.6607,2.6614,2.6637,2.6647,2.6531,2.6531,2.653,2.653,0,2.6413,2.6439,2.6467,2.6483,2.6497,2.653,2.6521,2.6537,2.6525,2.6521,2.6559,2.6563,2.6581,2.6591,2.658,2.6635,2.6624,2.6603,2.6567,2.6628,2.6649,2.6658,2.6536,2.6534,2.6533,2.6533,0,0,2.651,2.6519,2.653,2.6536,2.6546,2.6565,2.6597,2.6616,2.6629,2.6641,2.6666,2.6697,2.6677,2.6686,2.6676,2.6698,2.6755,2.6674,2.6674,2.6687,2.6815,2.6829,2.684,2.6743,2.6745,2.6746,2.6813,0,2.6578,2.6633,2.6622,2.6675,2.6699,2.6675,2.6702,2.671,2.6708,2.6727,2.6725,2.6746,2.672,2.6725,2.6747,2.6744,2.678,2.6739,2.6764,2.6765,2.676,2.6851,2.6867,2.693,2.6822,2.6823,2.6824,0,2.6665,2.6681,2.6736,2.6742,2.6752,2.6776,2.6792,2.6812,2.6821,2.6817,2.6828,2.6813,2.6843,2.681,2.685,2.6823,2.6833,2.6833,2.6835,2.6835,2.6797,2.6851,2.695,2.6959,2.6838,2.6837,2.6836,0,2.6728,2.6764,2.6801,2.6808,2.6816,2.6834,2.6838,2.6845,2.6857,2.6871,2.6878,2.6896,2.6905,2.6918,2.6908,2.6885,2.695,2.6916,2.6947,2.6947,2.6959,2.6958,2.7058,2.697,2.697,2.697,2.6969,0,2.6804,2.6839,2.6829,2.6852,2.6889,2.6877,2.6915,2.6916,2.6923,2.6944,2.6925,2.6946,2.6932,2.6952,2.6944,2.6978,2.6983,2.698,2.6977,2.698,2.698,2.6985,2.6979,2.6972,2.6971,2.6971,2.6971,0,2.688,2.6875,2.6914,2.6919,2.6921,2.6949,2.6952,2.6973,2.697,2.6998,2.7004,2.6999,2.7021,2.7013,2.7036,2.7031,2.7074,2.7066,2.7071,2.7068,2.7099,2.7095,2.7203,2.7216,2.7121,2.7122,2.7123,0,2.6928,2.6953,2.6962,2.6976,2.6981,2.7004,2.7016,2.7006,2.7019,2.7032,2.705,2.7071,2.7086,2.7123,2.712,2.7138,2.7129,2.7166,2.7132,2.7134,2.7127,2.7125,2.7127,2.7172,2.7173,2.7174,2.7175,0,2.7012,2.7009,2.7028,2.7047,2.7062,2.7076,2.7088,2.71,2.709,2.7106,2.7129,2.7141,2.7166,2.7186,2.7202,2.7205,2.7188,2.7186,2.7194,2.7196,2.7197,2.7195,2.7087,2.7183,2.7182,2.7182,2.7181,2.7181,2.7074,2.7095,2.7105,2.7127,2.7135,2.7147,2.7166,2.7167,2.7186,2.7205,2.7198,2.7223,2.7231,2.7251,2.7257,2.7276,2.7262,2.7273,2.7276,2.7278,2.7281,2.7196,2.7279,2.7279,2.7279,2.7279,2.7278,0,2.7156,2.7161,2.7181,2.7199,2.7216,2.7201,2.7214,2.7228,2.7252,2.7261,2.7277,2.7303,2.7323,2.7323,2.7341,2.7356,2.7349,2.7361,2.7359,2.7359,2.7294,2.7285,2.7367,2.7367,2.7367,2.7367,2.7367,2.7367,2.72,2.7236,2.7234,2.7273,2.7277,2.7303,2.7311,2.7322,2.7329,2.7359,2.7376,2.7376,2.7382,2.74,2.7417,2.7417,2.7423,2.7438,2.7434,2.7373,2.7364,2.7356,2.7346,2.744,2.744,2.7497,2.7498,2.7498]}]]